User: anonymous   Login
Location: Brno
(49.2000°N, 16.6330°E)
Time: 07:25:21
(UTC+02:00)
Language:

Cosmos 2227 - Orbit

View from above orbital plane
View from above orbital plane
View from above satellite
View from above satellite

Ground track
Ground track

The orbit data is extracted from the following two-line orbital elements,

1 22284U 92093A   17086.93158018 +.00000114 +00000-0 +85992-4 0  9991
2 22284 070.9775 045.8172 0020180 292.2724 067.6258 14.13266476250899
Epoch (UTC): 27 March 2017 22:21:28
Eccentricity: 0.0020180
inclination: 70.9775°
perigee height: 833 km
apogee height: 863 km
right ascension of ascending node: 45.8172°
argument of perigee: 292.2724°
revolutions per day: 14.13266476
mean anomaly at epoch: 67.6258°
orbit number at epoch: 25089

The dashed part of the orbit path shows where the satellite is in the earth's shadow,  

DLR